Regional Weather Roundup
Issued by NWS Spokane, WA

Home | Current Version | Previous Version | Text Only | Print | Product List | Glossary On
Versions: 1 2 3 4 5 6 7 8 9 10 11 12 13 14 15 16 17 18 19 20 21 22 23 24 25 26 27 28 29 30 31 32 33 34 35 36 37 38 39 40 41 42 43 44 45 46 47 48 49 50
000
NZUS01 KOTX 220057
RWROTX

Eastern Washington/Northern Idaho Roundup
National Weather Service, Spokane WA
600 PM PDT FRI JUL 21 2017

Note: "fair" indicated few or no clouds below 12,000 feet with no
significant weather and/or obstructions to visibility.

...Northeast Washington and Northern Idaho Panhandle...

CITY           SKY/WX    TMP DP  RH WIND       PRES   REMARKS
Spokane Intl   PTSUNNY   80  36  20 SW6       30.08F
Spokane Downto SUNNY     82  41  23 SW7       30.06F
Deer Park      MOSUNNY   79  36  21 NW8       30.07F

...Southeast Washington and southern Idaho Panhandle...

CITY           SKY/WX    TMP DP  RH WIND       PRES   REMARKS
Walla Walla    SUNNY     85  33  15 S3        30.03F
Pullman/Moscow SUNNY     79  35  20 W7        30.10F
Lowell           N/A     81  45  28 CALM      29.99S

...Columbia Basin...

CITY           SKY/WX    TMP DP  RH WIND       PRES   REMARKS
Ephrata        MOSUNNY   82  38  20 CALM      30.02F
Moses Lake     SUNNY     85  37  18 CALM      30.03F
Pasco          SUNNY     88  48  25 N7        29.99F
Hermiston      SUNNY     88  37  16 NE5       29.99F
Pendleton      SUNNY     85  29  13 NW8       30.03F

...East Slopes Cascades...

CITY           SKY/WX    TMP DP  RH WIND       PRES   REMARKS
The Dalles     SUNNY     87  42  20 W20G28    30.00S
Yakima         SUNNY     88  43  20 CALM      30.01F
Ellensburg     MOSUNNY   83  45  26 W6        30.05S
Omak           CLOUDY    82  35  18 VRB3      30.03F
Sunnyside        N/A     83  49  29 CALM      30.00F

...Southern British Columbia...

CITY           SKY/WX    TMP DP  RH WIND       PRES   REMARKS

...Western Montana...

CITY           SKY/WX    TMP DP  RH WIND       PRES   REMARKS
Missoula       SUNNY     83  30  14 NW7       30.05S

...Neighboring Cities...

CITY           SKY/WX    TMP DP  RH WIND       PRES   REMARKS
Seattle        PTSUNNY   76  50  40 W8        30.12F
Portland       MOSUNNY   82  52  35 NW8       30.08F
Boise          SUNNY     92  35  13 NW15      29.97F
Great Falls    SUNNY     84  20   9 W20       29.98S



USA.gov is the U.S. government's official web portal to all federal, state and local government web resources and services.